Location: Unspecified
(0.0000°N, 0.0000°E)
Time: 09:30:32
(UTC+00:00)

ARIANE 2 DEB - Pass Details

Date: 14 March 2026
Orbit: 561 x 35705 km, 7.7° (Epoch: 19 April)

Event Time Altitude Azimuth Distance (km) Brightness Sun altitude
Rises 20:47:16 0° 89° (E) 37,760 ? -39.4°
Reaches altitude 10° 22:12:40 10° 87° (E) 40,281 ? -60.7°
Maximum altitude 01:30:12 28° 82° (E) 29,710 ? -69.6°
Drops below altitude 10° 02:58:32 10° 81° (E) 17,272 ? -47.6°
Sets 03:11:31 0° 82° (E) 15,307 ? -44.4°
